Wind_Speed
10 10 10 10 10 10 9 8 7 6 5 4 4 4 3 2 2 2 1 1 2 3 2 2 3 4 5 5 5 5 5 6 6 6 7 8 8 9 9 10 10 10 11
10 11 11 11 11 10 9 8 7 6 6 5 5 4 4 4 3 3 3 2 2 3 3 3 4 5 5 6 6 6 7 7 7 8 8 9 10 11 11 11 12 13 13
10 11 11 11 11 10 9 8 8 7 7 6 6 5 5 5 5 4 4 4 4 3 4 4 4 5 6 6 7 8 8 8 8 9 10 10 12 13 13 13 14 14 15
10 11 11 12 12 11 10 9 8 8 7 7 7 6 5 6 6 5 5 5 5 5 5 5 5 6 7 7 8 8 9 9 9 10 11 11 12 13 14 15 15 15 16
10 11 11 12 12 12 11 10 9 8 8 8 7 7 7 6 6 6 5 5 5 6 6 6 6 6 7 8 9 9 9 10 11 12 12 13 13 14 15 16 16 17 17
10 10 10 11 11 12 12 11 10 9 8 7 7 7 7 7 7 6 6 6 6 7 7 7 7 7 8 8 9 9 10 11 12 13 13 13 14 15 16 17 17 18 18
9 10 9 10 11 12 12 11 11 10 8 8 8 7 8 8 7 7 7 7 7 8 7 8 8 8 9 9 10 10 11 11 12 13 14 15 15 16 16 17 17 18 18
9 9 9 10 11 12 13 13 12 10 9 9 8 8 8 8 8 7 7 7 8 9 8 9 9 9 9 10 11 11 11 12 13 14 15 15 15 16 16 17 18 18 17
9 9 9 10 11 12 13 13 11 10 10 9 9 9 9 8 8 8 7 8 8 9 9 9 9 10 10 11 11 11 12 13 14 14 15 15 16 16 17 17 18 17 17
9 10 10 11 11 13 13 13 11 10 10 10 10 10 10 9 9 9 8 9 9 9 9 9 9 10 11 12 12 12 13 14 15 15 16 16 17 17 17 17 18 18 18
10 11 11 11 12 13 13 13 12 11 11 11 10 11 11 10 10 9 9 9 9 9 9 9 10 11 11 12 12 13 14 14 15 15 16 17 17 16 17 17 18 19 19
10 11 11 11 12 13 13 13 12 12 12 11 11 11 11 10 10 9 9 9 10 10 10 10 10 11 12 12 13 13 14 15 15 16 16 17 17 17 18 18 19 19 20
11 12 11 12 12 12 12 12 12 12 12 12 11 11 11 11 11 11 10 10 10 10 10 11 12 12 12 12 13 14 15 15 16 16 16 17 17 18 19 19 19 19 20
13 13 13 13 13 13 13 13 13 13 13 13 12 12 12 12 12 12 12 12 11 11 11 12 12 12 12 13 14 14 14 15 16 16 17 18 18 18 19 19 20 20 21
14 14 14 14 14 14 14 13 13 13 14 13 12 12 12 13 13 13 13 13 12 12 13 13 13 13 13 13 14 14 15 16 17 18 18 18 18 18 19 20 20 21 22
14 14 14 14 14 15 14 14 15 14 14 13 13 13 13 14 14 14 14 13 13 13 13 13 13 13 14 14 14 15 16 17 18 18 19 19 19 20 20 20 21 21 22
14 14 14 15 15 15 15 15 16 16 15 14 14 15 15 15 15 15 16 15 14 14 14 14 14 14 15 16 16 16 17 18 18 18 19 19 20 20 21 21 21 22 22
16 16 16 16 16 16 16 17 17 17 16 15 15 16 16 16 16 16 16 14 15 15 15 15 15 16 16 17 17 18 18 19 19 19 20 21 21 22 22 22 22 23 23
17 17 17 18 18 18 18 18 18 16 16 16 16 17 17 17 17 17 15 15 15 15 16 16 16 16 17 17 18 19 19 19 20 20 21 21 22 22 22 22 23 23 23
18 18 18 19 19 19 18 18 17 16 16 17 17 18 18 18 18 16 16 16 16 16 16 17 17 18 18 18 19 19 19 20 20 20 21 22 22 23 23 23 24 24 24
20 19 19 20 19 18 18 18 18 18 18 18 18 18 18 18 18 17 17 17 17 17 18 18 19 19 19 19 19 19 19 20 21 21 22 22 23 23 24 24 24 24 24
22 21 21 21 21 20 19 18 18 18 19 19 19 19 19 19 19 19 18 18 18 18 19 19 19 19 20 20 20 20 20 21 22 23 23 24 24 24 24 24 24 24 24
23 23 22 22 21 20 20 19 19 20 20 20 20 21 21 21 21 20 20 20 19 19 19 20 20 20 21 21 21 22 22 23 23 24 25 25 25 24 24 24 25 25 26
25 24 24 23 22 22 21 21 21 22 22 22 22 22 22 22 21 21 21 21 20 20 21 21 21 22 22 22 23 23 23 24 24 25 26 26 26 26 25 25 25 26 27
26 25 26 25 24 24 24 23 24 24 23 23 23 23 23 23 22 21 22 22 21 22 22 22 22 23 23 24 24 24 25 25 26 27 27 27 26 26 26 26 26 26 27
26 26 26 25 25 25 25 25 25 25 24 23 24 24 24 23 23 23 23 23 23 23 23 23 24 24 24 25 25 26 26 26 27 28 28 27 27 27 27 27 27 27 27
Wind_Direction
12 11 8 5 7 8 12 14 11 3 358 352 349 349 349 343 303 298 300 300 266 257 266 249 235 233 237 239 246 255 264 272 280 281 280 284 289 293 288 288 287 286 285
10 8 6 2 1 2 8 11 11 5 353 342 339 342 341 331 311 298 301 295 282 263 268 271 250 244 245 255 260 267 270 273 279 283 285 288 290 290 288 287 288 287 287
5 4 4 3 5 6 4 3 2 360 353 342 334 333 337 332 323 304 291 290 298 286 276 275 260 257 256 262 271 279 277 279 285 286 287 288 290 291 291 290 290 289 288
358 357 360 2 3 2 1 360 356 351 347 344 340 333 327 323 315 310 297 292 298 300 292 283 279 272 264 268 274 276 277 281 285 289 289 290 293 292 288 290 293 293 291
354 351 354 358 1 1 360 358 355 351 344 339 340 342 339 329 320 315 308 302 301 306 300 290 285 277 272 273 275 277 280 286 288 290 291 293 294 291 290 290 291 294 294
353 349 348 353 356 356 356 356 355 351 345 342 339 334 333 330 323 317 313 308 301 301 297 292 287 285 283 282 277 281 287 291 292 293 293 292 292 291 291 291 292 294 294
345 346 345 347 351 351 351 351 352 350 345 341 336 331 326 324 319 313 311 309 307 304 300 297 292 288 287 287 286 289 295 296 296 297 296 294 293 291 292 293 293 294 293
331 336 336 341 345 345 346 346 346 347 344 337 333 330 327 322 319 311 310 308 305 302 297 294 294 289 286 288 289 292 294 296 298 297 295 297 298 297 297 296 296 297 296
319 328 331 337 340 341 341 342 342 340 338 334 331 330 328 325 319 313 307 308 309 308 302 294 291 290 289 289 290 291 294 296 298 297 297 297 296 298 299 298 297 296 296
309 317 325 330 334 336 336 335 336 336 334 331 330 330 327 321 315 313 308 305 306 304 301 294 289 290 290 290 290 292 295 296 297 297 296 297 298 297 298 298 299 298 297
301 309 314 320 325 329 333 336 336 334 333 330 327 328 324 319 316 311 309 306 306 305 301 299 297 294 296 294 294 295 296 298 298 298 297 297 298 300 301 300 301 300 299
296 303 305 312 319 326 329 332 333 332 331 329 325 326 324 325 320 317 315 308 305 306 304 303 303 301 301 299 298 297 298 299 299 299 299 298 298 300 301 300 300 299 299
287 299 301 308 314 320 322 325 327 328 327 328 325 322 322 325 323 320 317 312 306 305 304 303 302 303 302 301 301 298 299 300 300 301 302 301 299 299 300 300 300 300 300
282 291 298 303 307 312 315 317 320 321 323 323 323 325 323 322 321 319 315 310 307 305 305 303 302 301 300 300 302 301 304 304 304 304 304 303 301 300 300 300 301 301 301
280 287 292 295 298 303 307 310 315 314 317 318 317 320 323 323 320 317 313 307 303 304 304 306 304 301 300 302 302 304 306 307 306 305 305 304 303 302 302 301 301 301 302
275 283 289 294 296 299 303 306 309 308 310 310 311 313 314 318 320 319 318 315 312 310 307 308 308 306 305 304 305 306 307 308 308 308 307 306 305 304 302 301 301 303 304
269 278 285 291 294 297 300 301 300 300 302 304 306 309 310 310 312 311 312 310 309 311 309 308 306 307 307 307 306 306 307 309 310 310 310 309 308 306 305 304 302 303 303
266 273 281 286 288 292 297 298 297 294 294 296 300 305 304 305 307 309 309 308 306 306 307 305 305 304 304 304 306 307 307 310 311 309 309 309 309 307 306 306 305 304 304
263 270 276 282 286 288 291 293 293 292 293 294 298 301 302 303 304 305 307 306 307 307 306 305 304 304 303 303 304 307 309 311 313 311 309 310 309 308 308 307 307 307 306
259 267 274 279 282 284 286 288 290 290 293 295 296 297 300 301 300 302 303 303 304 307 305 305 304 303 302 302 303 307 309 310 313 314 314 312 311 311 311 309 308 307 306
258 265 270 275 277 278 281 285 286 288 291 294 298 302 303 300 298 299 300 302 302 303 304 303 303 303 303 304 304 305 307 309 311 312 312 312 311 311 311 310 309 308 307
257 262 267 271 274 276 277 279 283 286 290 293 296 299 300 299 296 297 299 299 301 302 303 303 303 302 302 304 305 306 307 308 309 310 311 312 312 311 310 310 310 310 308
255 260 264 270 271 270 273 276 279 283 288 290 292 295 296 296 296 296 298 297 298 299 302 303 303 303 303 304 304 306 307 308 309 310 310 311 311 311 311 311 310 310 309
256 260 264 268 270 272 274 277 280 284 286 288 289 291 294 294 293 294 296 297 296 297 300 302 302 302 303 304 305 307 308 308 308 308 309 309 309 310 310 310 309 309 310
255 259 263 267 269 273 274 276 280 283 285 286 288 289 292 293 292 293 295 295 295 297 299 301 301 301 302 303 305 305 306 307 307 308 309 309 309 309 310 310 310 310 310
254 259 262 265 267 271 273 275 278 281 283 285 288 289 290 290 291 292 294 293 294 295 298 299 299 299 301 303 304 304 305 305 305 306 307 308 308 309 309 309 310 310 310
Height
5926 5924 5923 5921 5919 5917 5915 5914 5912 5911 5910 5909 5908 5908 5907 5906 5906 5905 5904 5904 5904 5904 5904 5904 5904 5904 5904 5904 5904 5904 5904 5904 5904 5904 5904 5903 5903 5902 5902 5901 5900 5900 5899
5927 5925 5923 5921 5919 5917 5916 5914 5913 5912 5911 5909 5908 5908 5907 5906 5905 5905 5904 5904 5903 5903 5903 5903 5903 5903 5903 5903 5903 5903 5903 5903 5903 5903 5902 5902 5902 5900 5900 5899 5898 5897 5897
5928 5926 5924 5922 5920 5918 5916 5914 5913 5911 5910 5909 5908 5907 5906 5906 5905 5904 5904 5903 5903 5902 5902 5902 5902 5902 5902 5902 5902 5902 5902 5901 5901 5901 5900 5900 5899 5898 5897 5896 5895 5895 5894
5928 5927 5925 5922 5920 5918 5916 5914 5913 5911 5910 5909 5908 5907 5906 5905 5905 5904 5903 5902 5902 5901 5901 5901 5901 5900 5900 5900 5900 5900 5900 5899 5899 5899 5898 5897 5896 5895 5894 5894 5892 5891 5890
5928 5927 5925 5923 5921 5919 5917 5915 5913 5911 5910 5908 5907 5906 5905 5904 5903 5903 5902 5901 5901 5900 5900 5900 5899 5899 5899 5898 5898 5898 5898 5897 5897 5896 5895 5894 5893 5892 5891 5891 5889 5888 5886
5928 5926 5925 5923 5921 5919 5917 5915 5913 5911 5910 5908 5907 5906 5905 5904 5903 5902 5901 5900 5900 5899 5899 5898 5898 5898 5897 5897 5896 5896 5895 5895 5894 5893 5892 5891 5890 5889 5888 5887 5886 5884 5883
5928 5926 5924 5923 5921 5919 5917 5915 5913 5911 5909 5908 5907 5905 5904 5903 5902 5901 5900 5899 5899 5898 5897 5897 5896 5896 5895 5895 5894 5894 5893 5892 5892 5890 5889 5888 5887 5886 5885 5883 5882 5880 5878
5927 5926 5924 5922 5920 5919 5916 5914 5912 5910 5909 5907 5906 5905 5903 5902 5900 5899 5899 5898 5897 5896 5896 5895 5894 5893 5893 5892 5892 5891 5890 5890 5889 5887 5886 5885 5883 5882 5881 5879 5878 5876 5875
5926 5925 5923 5922 5920 5918 5916 5913 5911 5910 5908 5906 5905 5904 5902 5900 5899 5898 5897 5896 5895 5894 5894 5893 5892 5891 5891 5890 5889 5888 5888 5887 5886 5884 5883 5881 5880 5878 5877 5875 5874 5873 5871
5925 5924 5922 5920 5919 5917 5915 5912 5910 5909 5907 5906 5904 5902 5901 5899 5898 5896 5895 5894 5893 5892 5891 5890 5890 5889 5888 5887 5886 5885 5884 5883 5882 5881 5879 5878 5876 5875 5873 5871 5869 5868 5866
5923 5922 5921 5919 5917 5916 5914 5912 5910 5908 5907 5905 5903 5901 5899 5897 5896 5895 5894 5892 5891 5890 5889 5888 5888 5887 5886 5885 5883 5882 5881 5880 5879 5877 5876 5874 5872 5871 5869 5867 5865 5863 5862
5921 5920 5919 5918 5916 5914 5913 5911 5909 5907 5905 5903 5902 5900 5898 5896 5895 5893 5892 5891 5890 5888 5887 5886 5885 5884 5883 5882 5881 5879 5878 5877 5875 5873 5872 5870 5868 5867 5865 5863 5861 5859 5857
5919 5918 5916 5916 5914 5913 5911 5909 5908 5906 5904 5902 5901 5898 5897 5895 5894 5892 5890 5889 5888 5887 5885 5884 5883 5881 5880 5879 5877 5876 5875 5873 5871 5870 5868 5866 5864 5862 5860 5858 5856 5854 5852
5916 5916 5914 5914 5912 5911 5909 5908 5906 5904 5902 5901 5899 5897 5895 5894 5892 5891 5889 5887 5886 5884 5883 5881 5880 5878 5877 5876 5874 5873 5871 5870 5868 5866 5864 5862 5860 5857 5855 5853 5851 5849 5847
5914 5913 5912 5911 5910 5908 5907 5905 5904 5902 5901 5899 5897 5896 5894 5892 5891 5889 5887 5885 5884 5882 5881 5879 5877 5875 5874 5873 5871 5870 5868 5866 5864 5862 5860 5857 5855 5853 5851 5849 5847 5844 5842
5910 5910 5909 5908 5907 5906 5905 5903 5902 5900 5899 5897 5896 5894 5892 5890 5889 5887 5885 5883 5882 5880 5878 5876 5874 5873 5871 5870 5868 5867 5865 5862 5860 5858 5855 5853 5850 5848 5846 5844 5842 5840 5837
5907 5907 5906 5905 5905 5903 5902 5900 5899 5898 5896 5895 5893 5892 5890 5888 5886 5884 5883 5881 5879 5877 5875 5873 5872 5870 5868 5867 5865 5863 5861 5858 5856 5853 5851 5848 5846 5843 5841 5839 5836 5834 5832
5903 5903 5902 5902 5901 5900 5899 5897 5896 5894 5893 5892 5890 5889 5886 5885 5883 5881 5880 5878 5876 5874 5872 5870 5869 5867 5865 5863 5861 5859 5857 5854 5851 5849 5846 5844 5841 5838 5836 5833 5831 5828 5826
5899 5899 5898 5898 5897 5896 5895 5894 5892 5891 5890 5888 5887 5885 5883 5881 5880 5878 5877 5875 5873 5871 5869 5867 5865 5863 5861 5859 5857 5855 5853 5850 5847 5844 5842 5839 5836 5834 5831 5828 5825 5823 5820
5894 5894 5894 5894 5893 5892 5891 5890 5888 5887 5886 5885 5883 5881 5880 5878 5877 5875 5873 5871 5869 5867 5865 5864 5861 5859 5857 5855 5853 5851 5848 5846 5843 5840 5837 5835 5832 5829 5825 5822 5820 5817 5814
5889 5890 5890 5889 5888 5888 5887 5886 5884 5883 5882 5881 5879 5877 5875 5874 5873 5871 5869 5867 5865 5864 5862 5860 5857 5855 5853 5851 5849 5846 5844 5841 5838 5836 5833 5830 5827 5824 5820 5817 5814 5811 5808
5884 5885 5884 5884 5883 5883 5882 5881 5880 5879 5878 5877 5875 5873 5872 5870 5868 5867 5865 5863 5861 5859 5857 5855 5853 5851 5848 5846 5844 5842 5839 5836 5834 5831 5828 5825 5822 5818 5815 5812 5808 5805 5802
5878 5879 5879 5878 5878 5877 5877 5876 5876 5875 5874 5872 5871 5869 5867 5866 5864 5862 5860 5858 5856 5854 5852 5850 5848 5846 5844 5841 5839 5836 5834 5831 5828 5825 5822 5819 5816 5813 5809 5806 5802 5799 5796
5872 5872 5872 5872 5872 5872 5871 5871 5871 5869 5868 5867 5866 5864 5862 5860 5859 5857 5855 5853 5851 5850 5847 5845 5843 5841 5838 5836 5834 5831 5828 5825 5822 5820 5816 5813 5810 5807 5803 5800 5796 5793 5789
5865 5865 5866 5866 5866 5866 5866 5865 5864 5864 5862 5861 5860 5858 5857 5855 5853 5851 5849 5847 5846 5844 5842 5840 5838 5835 5833 5831 5828 5825 5822 5820 5817 5813 5810 5807 5804 5800 5797 5793 5790 5786 5783
5857 5858 5859 5859 5859 5860 5859 5859 5858 5857 5856 5855 5853 5852 5850 5849 5847 5845 5843 5841 5840 5838 5836 5834 5832 5829 5827 5824 5822 5819 5816 5813 5810 5807 5804 5800 5797 5793 5790 5787 5783 5779 5776